Back to catalog

STARLINK-32572

AliveCommunicationsVLEO
NORAD 61952·PAYLOAD·🇺🇸 United States

Launched Nov 14, 2024 from Vandenberg Space Force Base

Loading…

Next Passes (next 24 hours)

TLE

FreshSource: CelesTrak SupGP

Epoch: Sep 14, 2026, 20:52 UTC

1 61952C 24209P   26257.86993056 -.00013050  00000+0 -38563-3 0  2573
2 61952  53.1594 341.6895 0001186  83.9986 125.0542 15.34390737    19

Track STARLINK-32572 in real time with AllMySat

Download on the App Store